Regional Weather Roundup
Issued by NWS

Home | Current Version | Previous Version | Text Only | Print | Product List | Glossary Off
Versions: 1 2 3 4 5 6 7 8 9 10 11 12 13 14 15 16 17 18 19 20 21 22 23 24 25 26 27 28 29 30 31 32 33 34 35 36 37 38 39 40 41 42 43 44 45 46 47 48 49 50

069
ASUS43 KDMX 131101
RWRIA

WEATHER ROUNDUP FOR IOWA
NATIONAL WEATHER SERVICE DES MOINES IA
500 AM CST WED DEC 13 2017

NOTE: "FAIR" INDICATES FEW OR NO CLOUDS BELOW 12,000 FEET WITH NO
SIGNIFICANT WEATHER AND/OR OBSTRUCTIONS TO VISIBILITY.

* - THESE STATIONS ARE NOT NWS STATIONS...THUS NOT UNDER NWS
QUALITY CONTROL.  THEY ALSO DO NOT REPORT WEATHER SUCH
AS PRECIPITATION OR FOG.

IAZ001>003-012>014-020>022-031>034-043>046-131200-
   NORTHWEST IOWA

CITY           SKY/WX    TMP DP  RH WIND       PRES   REMARKS
CARROLL *      CLOUDY    39  23  52 W18G24    29.52S WCI  30
CHEROKEE *     CLOUDY    46  25  45 W16G25    29.50F
DENISON *      CLEAR     37  23  56 W12       29.57S WCI  30
LE MARS *      CLOUDY    48  28  46 NW23G30   29.54F
ORANGE CITY *  CLOUDY    46  30  53 NW21G26   29.50F
SHELDON *      CLOUDY    45  30  57 NW21G30   29.45F
SIOUX CITY     CLOUDY    51  26  37 NW25G38   29.56F
SPENCER        CLOUDY    42  26  53 W22G30    29.45F
STORM LAKE *   PTCLDY    41  25  52 W21       29.49F
$$

IAZ055>058-069>071-079>083-090>094-131200-
   SOUTHWEST IOWA

CITY           SKY/WX    TMP DP  RH WIND       PRES   REMARKS
ATLANTIC *     CLOUDY    32  25  74 SW14      29.59F WCI  22
AUDUBON *      CLOUDY    32  25  74 SW10      29.57S WCI  24
CLARINDA *       N/A     30  25  80 W8        29.65S WCI  23
COUNCIL BLFS * CLEAR     45  23  42 W17       29.61F
CRESTON *      CLOUDY    32  25  74 W10       29.60R WCI  24
HARLAN  *      PTCLDY    37  25  60 W15       29.61F WCI  28
LAMONI         CLOUDY    31  24  75 SW14      29.59F WCI  21
RED OAK *      CLOUDY    32  25  74 SW5       29.62F WCI  27
SHENANDOAH *   PTCLDY    30  23  74 SW7       29.64F WCI  23
$$

IAZ047>049-059>061-072>074-084-131200-
   CENTRAL IOWA

CITY           SKY/WX    TMP DP  RH WIND       PRES   REMARKS
AMES           CLOUDY    35  26  69 SW20      29.48F WCI  24
ANKENY *       CLOUDY    37  25  60 SW12      29.53S WCI  30
BOONE *        CLOUDY    36  25  64 W16       29.47F WCI  26
CHARITON *     CLOUDY    34  25  69 SW17G25   29.55F WCI  23
DES MOINES     CLOUDY    36  24  62 SW15G22   29.52F WCI  27
GRINNELL*      CLOUDY    32  25  74 SW15      29.51F WCI  22
KNOXVILLE *    CLOUDY    34  23  64 SW13      29.51F WCI  25
MARSHALLTOWN   PTCLDY    32  24  72 SW18G24   29.46F WCI  20
NEWTON *       CLOUDY    32  25  74 SW16      29.51F WCI  21
PELLA *        CLOUDY    35  25  66 SW15      29.53F WCI  25
PERRY *          N/A     37  22  55 W20       29.52S WCI  26
$$

IAZ004>006-015-016-023>025-035-036-131200-
   NORTH CENTRAL IOWA

CITY           SKY/WX    TMP DP  RH WIND       PRES   REMARKS
ALGONA *       CLOUDY    37  25  60 W16       29.42F WCI  28
CLARION *      PTCLDY    36  25  64 W15       29.43F WCI  26
ESTHERVILLE    CLOUDY    39  25  57 W22G37    29.41F WCI  29
FORT DODGE *   CLOUDY    39  23  52 W18       29.46F WCI  30
MASON CITY     CLOUDY    34  23  64 W17       29.39F WCI  23
FOREST CITY *    N/A     32  27  80 W5        29.39F WCI  27
WEBSTER CITY * CLOUDY    37  23  56 W18       29.44F WCI  27
IOWA FALLS *     N/A     33  26  73 SW17      29.46F WCI  22
$$

IAZ007>011-017>019-026>030-037>042-050>054-066-131200-
   NORTHEAST IOWA

CITY           SKY/WX    TMP DP  RH WIND       PRES   REMARKS
CEDAR RAPIDS   CLOUDY    30  23  75 S13       29.49F WCI  20
CHARLES CITY * CLOUDY    28  25  86 S12       29.41F WCI  18
CLINTON *      CLOUDY    26  18  71 S13       29.58F WCI  15
DECORAH *      CLOUDY    28  23  80 S12G18    29.39F WCI  18
DUBUQUE        CLOUDY    25  18  74 S16       29.51F WCI  12
MONTICELLO *   CLOUDY    28  19  69 S13       29.51F WCI  18
OELWEIN *      CLOUDY    28  25  86 S16       29.45F WCI  17
WATERLOO       CLOUDY    30  22  72 S8        29.45F WCI  22
$$

IAZ064-065-067-068-078-131200-
   EAST CENTRAL IOWA

CITY           SKY/WX    TMP DP  RH WIND       PRES   REMARKS
DAVENPORT      PTCLDY    30  19  63 S20G26    29.60F WCI  17
IOWA CITY      MOCLDY    31  22  69 S8        29.56F WCI  23
MT. PLEASANT * CLOUDY    29  20  71 S14       29.61F WCI  18
MUSCATINE *    CLOUDY    30  21  69 S12       29.60F WCI  21
QUAD CITIES    CLOUDY    31  19  61 S9        29.59F WCI  23
$$

IAZ062-063-075>077-085>089-095>099-131200-
   SOUTHEAST IOWA

CITY           SKY/WX    TMP DP  RH WIND       PRES   REMARKS
BURLINGTON     PTCLDY    30  21  69 S20       29.62F WCI  17
FAIRFIELD *    PTCLDY    32  21  64 S13G20    29.56F WCI  22
FORT MADISON * CLOUDY    30  21  69 S15G23    29.63F WCI  19
KEOKUK *       CLOUDY    28  21  74 S13G21    29.64F WCI  18
OSKALOOSA *      N/A     34  25  70 SW18      29.53F WCI  23
OTTUMWA        CLEAR     33  24  69 SW16      29.54F WCI  23
WASHINGTON *   CLOUDY    32  23  69 S17G23    29.57F WCI  21
$$

ABBREVIATIONS USED IN REMARKS
   TC - TEMPERATURES IN CELSIUS
  WCI - WIND CHILL INDEX
   HX - HEAT INDEX
  VSB - VISIBILITY
$$





USA.gov is the U.S. government's official web portal to all federal, state and local government web resources and services.